User: anonymous
Location: Stull Observatory
(42.2506°N, 77.7903°W)
Time: 07:50:45
(UTC-04:00)
Language:

Abrixas rocket - Orbit

View from above orbital plane
View from above orbital plane
View from above satellite
View from above satellite

Ground track
Ground track

The orbit data is extracted from the following two-line orbital elements,

1 25723U 99022C   14272.08378645  .00013990  00000-0  44724-3 0  7644
2 25723 048.4252 345.9588 0017498 347.5934 082.9763 15.32458149853083
Epoch (UTC): 29 September 2014 02:00:39
Eccentricity: 0.0017498
inclination: 48.4252°
perigee height: 456 km
apogee height: 480 km
right ascension of ascending node: 345.9588°
argument of perigee: 347.5934°
revolutions per day: 15.32458149
mean anomaly at epoch: 82.9763°
orbit number at epoch: 85308

The dashed part of the orbit path shows where the satellite is in the earth's shadow,  

DLR